******************************************************************************* JPL/HORIZONS PANSTARRS (C/2011 L4) 2025-Dec-12 17:51:06 Rec #:90004125 (+COV) Soln.date: 2021-Apr-15_23:31:52 # obs: 5413 (2011-2014) IAU76/J2000 helio. ecliptic osc. elements (au, days, deg., period=Julian yrs): EPOCH= 2456365.5 ! 2013-Mar-14.0000000 (TDB) RMSW= n.a. EC= 1.000032767108972 QR= .3015442238164768 TP= 2456361.6699600024 OM= 65.66588639150341 W= 333.6516376633611 IN= 84.20819702923397 A= -9202.649647082981 MA= 4.2760034872878E-6 ADIST= 9.999999E99 PER= 9.999999E99 N= 1.116E-6 ANGMOM= .013359048 DAN= .31807 DDN= 5.80692 L= 62.8045775 B= -26.2035899 MOID= .66034502 TP= 2013-Mar-10.1699600024 Comet physical (GM= km^3/s^2; RAD= km): GM= n.a. RAD= n.a. M1= 7.8 M2= n.a. k1= 6.5 k2= n.a. PHCOF= n.a. COMET comments 1: soln ref.= JPL#137, data arc: 2011-05-21 to 2014-08-27 2: k1=6.5; ******************************************************************************* ******************************************************************************* Ephemeris / WWW_USER Fri Dec 12 17:51:06 2025 Pasadena, USA / Horizons ******************************************************************************* Target body name: PANSTARRS (C/2011 L4) {source: JPL#137} Center body name: Solar System Barycenter (0) {source: DE441} Center-site name: BODY CENTER ******************************************************************************* Start time : A.D. 1600-Jan-01 00:00:00.0000 TDB Stop time : A.D. 2500-Jan-01 00:00:00.0000 TDB Step-size : 900 calendar years ******************************************************************************* Center geodetic : 0.0, 0.0, 0.0 {E-lon(deg),Lat(deg),Alt(km)} Center cylindric: 0.0, 0.0, 0.0 {E-lon(deg),Dxy(km),Dz(km)} Center radii : (undefined) Keplerian GM : 2.9630927493968080E-04 au^3/d^2 Small perturbers: Yes {source: SB441-N16} Output units : AU-D, deg, Julian Day Number (Tp) Calendar mode : Mixed Julian/Gregorian Output type : GEOMETRIC osculating elements Output format : 10 Reference frame : Ecliptic of J2000.0 ******************************************************************************* Initial IAU76/J2000 heliocentric ecliptic osculating elements (au, days, deg.): EPOCH= 2456365.5 ! 2013-Mar-14.0000000 (TDB) RMSW= n.a. EC= 1.000032767108972 QR= .3015442238164768 TP= 2456361.6699600024 OM= 65.66588639150341 W= 333.6516376633611 IN= 84.20819702923397 Equivalent ICRF heliocentric cartesian coordinates (au, au/d): X= 1.309693762843735E-01 Y= 2.615039992703326E-01 Z= 1.400238446292455E-01 VX=-4.966888948496279E-04 VY=-8.181124395458109E-03 VZ= 4.192867019584384E-02 Comet physical (GM= km^3/s^2; RAD= km): GM= n.a. RAD= n.a. M1= 7.8 M2= n.a. k1= 6.5 k2= n.a. PHCOF= n.a. ******************************************************************************* JDTDB EC QR IN OM W Tp N MA TA A AD PR ******************************************************************************* $$SOE 2305447.500000000 = A.D. 1600-Jan-01 00:00:00.0000 TDB EC= 9.999911071355361E-01 QR= 3.014205325489658E-01 IN= 8.408668722090179E+01 OM= 6.564657710144924E+01 W = 3.336616991194196E+02 Tp= 2456361.746330228169 N = 1.580514614482495E-07 MA= 3.599761477828142E+02 TA= 1.835575433361367E+02 A = 3.389465045740496E+04 AD= 6.778899949427736E+04 PR= 2.277739140791647E+09 2634166.500000000 = A.D. 2500-Jan-01 00:00:00.0000 TDB EC= 9.998662094980115E-01 QR= 3.008714067752209E-01 IN= 8.423613413342416E+01 OM= 6.567832668221246E+01 W = 3.336006744339168E+02 Tp= 2456361.798536718823 N = 9.248297786364249E-06 MA= 1.644390826948039E+00 TA= 1.767339791826037E+02 A = 2.248824859047371E+03 AD= 4.497348846687968E+03 PR= 3.892608221707419E+07 $$EOE ******************************************************************************* TIME Barycentric Dynamical Time ("TDB" or T_eph) output was requested. This continuous coordinate time is equivalent to the relativistic proper time of a clock at rest in a reference frame co-moving with the solar system barycenter but outside the system's gravity well. It is the independent variable in the solar system relativistic equations of motion. TDB runs at a uniform rate of one SI second per second and is independent of irregularities in Earth's rotation. CALENDAR SYSTEM Mixed calendar mode was active such that calendar dates after AD 1582-Oct-15 (if any) are in the modern Gregorian system. Dates prior to 1582-Oct-5 (if any) are in the Julian calendar system, which is automatically extended for dates prior to its adoption on 45-Jan-1 BC. The Julian calendar is useful for matching historical dates. The Gregorian calendar more accurately corresponds to the Earth's orbital motion and seasons. A "Gregorian-only" calendar mode is available if such physical events are the primary interest. REFERENCE FRAME AND COORDINATES Ecliptic at the standard reference epoch Reference epoch: J2000.0 X-Y plane: adopted Earth orbital plane at the reference epoch Note: IAU76 obliquity of 84381.448 arcseconds wrt ICRF X-Y plane X-axis : ICRF Z-axis : perpendicular to the X-Y plane in the directional (+ or -) sense of Earth's north pole at the reference epoch. Symbol meaning [1 au= 149597870.700 km, 1 day= 86400.0 s]: JDTDB Julian Day Number, Barycentric Dynamical Time EC Eccentricity, e QR Periapsis distance, q (au) IN Inclination w.r.t X-Y plane, i (degrees) OM Longitude of Ascending Node, OMEGA, (degrees) W Argument of Perifocus, w (degrees) Tp Time of periapsis (Julian Day Number) N Mean motion, n (degrees/day) MA Mean anomaly, M (degrees) TA True anomaly, nu (degrees) A Semi-major axis, a (au) AD Apoapsis distance (au) PR Sidereal orbit period (day) ABERRATIONS AND CORRECTIONS Geometric osculating elements have NO corrections or aberrations applied. Computations by ... Solar System Dynamics Group, Horizons On-Line Ephemeris System 4800 Oak Grove Drive, Jet Propulsion Laboratory Pasadena, CA 91109 USA General site: https://ssd.jpl.nasa.gov/ Mailing list: https://ssd.jpl.nasa.gov/email_list.html System news : https://ssd.jpl.nasa.gov/horizons/news.html User Guide : https://ssd.jpl.nasa.gov/horizons/manual.html Connect : browser https://ssd.jpl.nasa.gov/horizons/app.html#/x API https://ssd-api.jpl.nasa.gov/doc/horizons.html command-line telnet ssd.jpl.nasa.gov 6775 e-mail/batch https://ssd.jpl.nasa.gov/ftp/ssd/horizons_batch.txt scripts https://ssd.jpl.nasa.gov/ftp/ssd/SCRIPTS Author : Jon.D.Giorgini@jpl.nasa.gov ******************************************************************************* !$$SOF CENTER = '@0' COMMAND = '2011 L4' OUT_UNITS = 'AU-D' START_TIME = '1600-01-01' STEP_SIZE = '900 years' STOP_TIME = '2500-01-01' TABLE_TYPE = 'ELEMENTS'